User: anonymous   Login
Location: Caribou
(46.8667°N, 68.0167°W)
Time: 15:50:29
(UTC-04:00)
Language:

SL-08 RB Rocket - Orbit

View from above orbital plane
View from above orbital plane
View from above satellite
View from above satellite

Ground track
Ground track

The orbit data is extracted from the following two-line orbital elements,

1 26387U 00033D   15117.83376528  .00000653  00000-0  12251-3 0  9997
2 26387 098.0661 186.5891 0025472 298.4148 196.8981 14.67837385793230
Epoch (UTC): 27 April 2015 20:00:37
Eccentricity: 0.0025472
inclination: 98.0661°
perigee height: 650 km
apogee height: 686 km
right ascension of ascending node: 186.5891°
argument of perigee: 298.4148°
revolutions per day: 14.67837385
mean anomaly at epoch: 196.8981°
orbit number at epoch: 79323

The dashed part of the orbit path shows where the satellite is in the earth's shadow,  

DLR